Weather History for Peoria, IL

Change the Weather History Date:

Friday, February 28, 2014

  Actual Average Record
Temperature  
Mean Temperature 24 °F 34 °F  
Max Temperature 40 °F 43 °F 68 °F (1895)
Min Temperature 7 °F 25 °F -2 °F (1962)
Degree Days  
Heating Degree Days 41 31  
Month to date heating degree days 1311 995  
Since 1 July heating degree days 5179 4516  
Cooling Degree Days 0 0  
Month to date cooling degree days 0 0  
Year to date cooling degree days 0 0  
Moisture  
Dew Point 10 °F    
Average Humidity 55    
Maximum Humidity 69    
Minimum Humidity 40    
Precipitation  
Precipitation 0.00 in 0.08 in 0.76 in (1987)
Month to date precipitation 2.77 1.79  
Year to date precipitation 4.87 3.57  
Snow  
Snow 0.00 in 0.20 in 13.50 in (1900)
Month to date snowfall 22.9 6.2  
Since 1 July snowfall 50.2 21.3  
Snow Depth 2.00 in    
Sea Level Pressure  
Sea Level Pressure 30.08 in    
Wind  
Wind Speed 11 mph (SSE)    
Max Wind Speed 23 mph    
Max Gust Speed 28 mph    
Visibility 10 miles    
Events      
T = Trace of Precipitation, MM = Missing Value Source: NWS Daily Summary

Daily Weather History Graph

Daily Weather History Graph

Search for Another Location

Airport:

Trip Planner

Search our weather history database for the weather conditions in past years. The results will help you decide how hot, cold, wet, or windy it might be!

Date:

Astronomy

Feb. 28, 2014 Rise Set
Actual Time 6:34 AM CST 5:48 PM CST
Civil Twilight 6:06 AM CST 6:16 PM CST
Nautical Twilight 5:35 AM CST 6:48 PM CST
Astronomical Twilight 5:03 AM CST 7:19 PM CST
Moon 5:48 AM CST (2/28) 5:26 PM CST (2/28)
Length of Visible Light 12h 09m
Length of Day
11h 14m
Waning Crescent, 1% of the Moon is Illuminated
Feb 28
Waning Crescent
Mar 1
New
Mar 8
First Quarter
Mar 16
Full
Mar 23
Last Quarter

Hourly Weather History & Observations

Time (CST) Temp. Windchill Dew Point Humidity Pressure Visibility Wind Dir Wind Speed Gust Speed Precip Events Conditions
12:54 AM 7.0 °F -4.5 °F -4.0 °F 61% 30.20 in 10.0 mi East 6.9 mph - N/A   Overcast
1:54 AM 7.0 °F -3.3 °F -4.0 °F 61% 30.19 in 10.0 mi East 5.8 mph - N/A   Scattered Clouds
2:54 AM 7.0 °F -3.3 °F -4.0 °F 61% 30.19 in 10.0 mi East 5.8 mph - N/A   Clear
3:54 AM 8.1 °F -3.2 °F -2.9 °F 61% 30.18 in 10.0 mi East 6.9 mph - N/A   Clear
4:54 AM 8.1 °F -2.0 °F -2.0 °F 64% 30.19 in 10.0 mi ESE 5.8 mph - N/A   Clear
5:54 AM 9.0 °F -3.2 °F -0.9 °F 64% 30.19 in 10.0 mi ESE 8.1 mph - N/A   Mostly Cloudy
6:54 AM 10.0 °F -3.7 °F -0.9 °F 61% 30.18 in 10.0 mi SE 10.4 mph - N/A   Clear
7:54 AM 12.9 °F -2.2 °F -0.0 °F 56% 30.17 in 10.0 mi SE 13.8 mph - N/A   Overcast
8:54 AM 17.1 °F 3.0 °F 3.0 °F 54% 30.15 in 10.0 mi SSE 13.8 mph 20.7 mph N/A   Partly Cloudy
9:54 AM 21.0 °F 11.4 °F 5.0 °F 50% 30.12 in 10.0 mi SE 8.1 mph 17.3 mph N/A   Clear
10:54 AM 27.0 °F 16.1 °F 7.0 °F 43% 30.11 in 10.0 mi SSE 12.7 mph - N/A   Clear
11:54 AM 28.9 °F 16.5 °F 9.0 °F 43% 30.08 in 10.0 mi South 18.4 mph - N/A   Clear
12:54 PM 33.1 °F 21.2 °F 12.0 °F 42% 30.04 in 10.0 mi South 20.7 mph - N/A   Clear
1:54 PM 35.1 °F 25.9 °F 14.0 °F 42% 30.02 in 10.0 mi South 13.8 mph 23.0 mph N/A   Clear
2:54 PM 37.0 °F 27.4 °F 16.0 °F 42% 29.99 in 10.0 mi SSE 17.3 mph - N/A   Clear
3:54 PM 39.9 °F 32.9 °F 18.0 °F 41% 29.97 in 10.0 mi South 11.5 mph - N/A   Clear
4:54 PM 39.0 °F 31.8 °F 19.0 °F 45% 29.97 in 10.0 mi South 11.5 mph - N/A   Clear
5:54 PM 37.0 °F 29.8 °F 21.0 °F 52% 29.98 in 10.0 mi South 10.4 mph - N/A   Clear
6:54 PM 35.1 °F 27.9 °F 21.9 °F 59% 30.00 in 10.0 mi South 9.2 mph - N/A   Partly Cloudy
7:54 PM 35.1 °F 27.4 °F 21.9 °F 59% 30.00 in 10.0 mi South 10.4 mph - N/A   Clear
8:54 PM 35.1 °F 27.9 °F 21.0 °F 57% 30.00 in 10.0 mi South 9.2 mph - N/A   Clear
9:54 PM 35.1 °F 26.4 °F 19.9 °F 54% 30.01 in 10.0 mi South 12.7 mph - N/A   Clear
10:54 PM 33.1 °F 24.4 °F 21.0 °F 61% 30.00 in 10.0 mi South 11.5 mph - N/A   Partly Cloudy
11:54 PM 32.0 °F 24.8 °F 21.0 °F 64% 30.02 in 10.0 mi South 8.1 mph - N/A   Mostly Cloudy